Location: Unspecified
(53.6186°N, 1.3184°W)
Time: 22:37:04
(UTC+01:00)

ISS - Visible Passes

Search period start: 23 September 2017 00:00
Search period end: 03 October 2017 00:00
Orbit: 401 x 407 km, 51.6° (Epoch: 24 September)

Date Brightness Start Highest point End Pass type
(mag) Time Alt. Az. Time Alt. Az. Time Alt. Az.
26 Sep -1.3 21:02:07 10° SSW 21:02:34 13° SSW 21:02:34 13° SSW visible
27 Sep -2.0 20:10:29 10° S 20:12:42 17° SE 20:12:44 17° SE visible
28 Sep -2.5 20:53:20 10° SW 20:55:24 29° SSW 20:55:24 29° SSW visible
29 Sep -2.6 20:01:20 10° SSW 20:04:09 27° SSE 20:05:17 22° ESE visible
29 Sep -1.3 21:37:03 10° WSW 21:37:56 17° WSW 21:37:56 17° WSW visible
30 Sep -3.4 20:44:46 10° WSW 20:47:42 48° S 20:47:42 48° S visible
01 Oct -3.2 19:52:33 10° SW 19:55:39 39° SSE 19:57:23 21° ESE visible
01 Oct -1.6 21:28:39 10° W 21:30:02 23° WSW 21:30:02 23° WSW visible
02 Oct -3.8 20:36:18 10° WSW 20:39:32 60° S 20:39:39 59° SSE visible
